Grand Junction, CO

6:36 AM MDT on March 23, 2017 (GMT -0600)
Walker

Weather History for KGJT - August, 2014

Change the Weather History Date:

Sunday, August 3, 2014

  Actual Average Record
Temperature  
Mean Temperature 78 °F 78 °F  
Max Temperature 90 °F 92 °F 101 °F (1977)
Min Temperature 65 °F 63 °F 53 °F (1928)
Degree Days  
Heating Degree Days 0 0  
Month to date heating degree days 0 0  
Since 1 June heating degree days 19 23  
Since 1 July heating degree days 0 1  
Cooling Degree Days 13 13  
Month to date cooling degree days 33 39  
Year to date cooling degree days 740 731  
Since 1 June cooling degree days 681 680  
Growing Degree Days 27 (Base 50)    
Moisture  
Dew Point 51 °F    
Average Humidity 53    
Maximum Humidity 81    
Minimum Humidity 24    
Precipitation  
Precipitation 0.07 in 0.02 in 0.73 in (1916)
Month to date precipitation 0.07 0.08  
Year to date precipitation 5.00 4.98  
Snow  
Snow 0.00 in 0.00 in 0.00 in (2015)
Month to date snowfall 0.0 0.0  
Since 1 June snowfall 0.0 0.0  
Since 1 July snowfall 0.0 0.0  
Snow Depth 0.00 in    
Sea Level Pressure  
Sea Level Pressure 29.98 in    
Wind  
Wind Speed 9 mph (ESE)    
Max Wind Speed 22 mph    
Max Gust Speed 29 mph    
Visibility 10 miles    
Events Rain , Thunderstorm    
T = Trace of Precipitation, MM = Missing Value Source: NWS Daily Summary

Daily Weather History Graph

Daily Weather History Graph

Search for Another Location

Airport or City:

Trip Planner

Search our weather history database for the weather conditions in past years. The results will help you decide how hot, cold, wet, or windy it might be!

Date:

Astronomy

Aug. 03, 2014 Rise Set
Actual Time 6:16 AM MDT 8:23 PM MDT
Civil Twilight 5:46 AM MDT 8:53 PM MDT
Nautical Twilight 5:10 AM MDT 9:29 PM MDT
Astronomical Twilight 4:31 AM MDT 10:08 PM MDT
Moon 1:36 PM MDT (8/3) No Moon Set
Length of Visible Light 15h 06m
Length of Day
14h 07m
Waxing Crescent, 47% of the Moon is Illuminated
Aug 3
Waxing Crescent
Aug 3
First Quarter
Aug 10
Full
Aug 17
Last Quarter
Aug 25
New

Hourly Weather History & Observations

Time (MDT) Temp. Dew Point Humidity Pressure Visibility Wind Dir Wind Speed Gust Speed Precip Events Conditions
12:53 AM 70.0 °F 43.0 °F 38% 29.91 in 10.0 mi ESE 12.7 mph - N/A   Clear
1:53 AM 71.6 °F 42.8 °F 35% 30.12 in 10.0 mi ESE 8.1 mph - N/A   Clear
2:53 AM 69.1 °F 45.0 °F 42% 29.91 in 10.0 mi East 11.5 mph - N/A   Clear
3:53 AM 69.1 °F 45.0 °F 42% 29.93 in 10.0 mi East 9.2 mph - N/A   Clear
4:53 AM 71.1 °F 46.9 °F 42% 29.94 in 10.0 mi ESE 13.8 mph - N/A   Clear
5:53 AM 68.0 °F 46.0 °F 45% 29.97 in 10.0 mi ESE 13.8 mph - N/A   Clear
6:53 AM 68.0 °F 48.0 °F 49% 29.99 in 10.0 mi ESE 10.4 mph - N/A   Clear
7:53 AM 73.9 °F 48.9 °F 41% 30.00 in 10.0 mi ESE 9.2 mph - N/A   Clear
8:53 AM 75.9 °F 48.9 °F 38% 30.01 in 10.0 mi SE 5.8 mph - N/A   Clear
9:53 AM 77.0 °F 54.0 °F 45% 30.01 in 10.0 mi West 4.6 mph - N/A   Clear
10:53 AM 81.0 °F 50.0 °F 34% 30.00 in 10.0 mi WNW 3.5 mph - N/A   Clear
11:53 AM 82.9 °F 51.1 °F 33% 29.98 in 10.0 mi West 9.2 mph - N/A   Clear
12:53 PM 84.9 °F 51.1 °F 31% 29.95 in 10.0 mi West 9.2 mph - N/A   Clear
1:53 PM 86.0 °F 48.9 °F 28% 29.92 in 10.0 mi Variable 5.8 mph - N/A   Clear
2:53 PM 88.0 °F 50.0 °F 27% 29.88 in 10.0 mi West 5.8 mph - N/A   Scattered Clouds
3:53 PM 88.0 °F 46.9 °F 24% 29.85 in 10.0 mi West 10.4 mph - N/A   Clear
4:53 PM 86.0 °F 52.0 °F 31% 29.84 in 10.0 mi WNW 10.4 mph - N/A   Scattered Clouds
5:53 PM 84.9 °F 48.9 °F 29% 29.84 in 10.0 mi WNW 10.4 mph - N/A   Clear
6:53 PM 82.9 °F 46.9 °F 28% 29.85 in 10.0 mi WSW 13.8 mph - N/A   Mostly Cloudy
7:53 PM 80.6 °F 46.4 °F 30% 30.07 in 10.0 mi SSW 4.6 mph - N/A   Mostly Cloudy
8:53 PM 79.0 °F 50.0 °F 36% 29.89 in 10.0 mi ENE 16.1 mph 23.0 mph 0.00 in Rain Light Rain
9:36 PM 69.1 °F 57.0 °F 65% 30.18 in 4.0 mi ESE 11.5 mph 25.3 mph 0.04 in Rain Heavy Rain
9:49 PM 64.4 °F 59.0 °F 83% 30.17 in 7.0 mi ENE 16.1 mph 25.3 mph 0.07 in Rain , Thunderstorm Light Thunderstorms and Rain
9:53 PM 64.9 °F 59.0 °F 81% 29.99 in 8.0 mi ENE 17.3 mph 25.3 mph 0.07 in Rain , Thunderstorm Light Thunderstorms and Rain
9:58 PM 64.9 °F 59.0 °F 81% 30.17 in 8.0 mi NE 17.3 mph - 0.00 in Rain Light Rain
10:53 PM 66.2 °F 57.2 °F 73% 30.15 in 10.0 mi NE 12.7 mph - N/A   Overcast
11:53 PM 66.9 °F 60.1 °F 79% 29.96 in 10.0 mi Calm Calm - N/A   Scattered Clouds